Year,Month,Day,Hour,Minute,Value (Times are PST for temperature in C)
2018,07,24,00,00,19.70
2018,07,24,00,01,19.70
2018,07,24,00,02,19.70
2018,07,24,00,03,19.70
2018,07,24,00,04,19.70
2018,07,24,00,05,19.70
2018,07,24,00,06,19.80
2018,07,24,00,07,19.80
2018,07,24,00,08,19.80
2018,07,24,00,09,19.80
2018,07,24,00,10,19.80
2018,07,24,00,11,19.80
2018,07,24,00,12,19.80
2018,07,24,00,13,19.80
2018,07,24,00,14,19.90
2018,07,24,00,15,19.90
2018,07,24,00,16,19.90
2018,07,24,00,17,19.90
2018,07,24,00,18,19.80
2018,07,24,00,19,19.80
2018,07,24,00,20,19.80
2018,07,24,00,21,19.80
2018,07,24,00,22,19.80
2018,07,24,00,23,19.80
2018,07,24,00,24,19.80
2018,07,24,00,25,19.80
2018,07,24,00,26,19.80
2018,07,24,00,27,19.80
2018,07,24,00,28,19.70
2018,07,24,00,29,19.70
2018,07,24,00,30,19.70
2018,07,24,00,31,19.70
2018,07,24,00,32,19.70
2018,07,24,00,33,19.60
2018,07,24,00,34,19.60
2018,07,24,00,35,19.60
2018,07,24,00,36,19.50
2018,07,24,00,37,19.50
2018,07,24,00,38,19.40
2018,07,24,00,39,19.40
2018,07,24,00,40,19.40
2018,07,24,00,41,19.30
2018,07,24,00,42,19.30
2018,07,24,00,43,19.30
2018,07,24,00,44,19.20
2018,07,24,00,45,19.20
2018,07,24,00,46,19.20
2018,07,24,00,47,19.20
2018,07,24,00,48,19.10
2018,07,24,00,49,19.10
2018,07,24,00,50,19.10
2018,07,24,00,51,19.10
2018,07,24,00,52,19.10
2018,07,24,00,53,19.00
2018,07,24,00,54,19.00
2018,07,24,00,55,19.00
2018,07,24,00,56,19.00
2018,07,24,00,57,18.90
2018,07,24,00,58,18.90
2018,07,24,00,59,18.90
2018,07,24,01,00,18.90
2018,07,24,01,01,18.80
2018,07,24,01,02,18.80
2018,07,24,01,03,18.80
2018,07,24,01,04,18.80
2018,07,24,01,05,18.70
2018,07,24,01,06,18.70
2018,07,24,01,07,18.70
2018,07,24,01,08,18.60
2018,07,24,01,09,18.60
2018,07,24,01,10,18.60
2018,07,24,01,11,18.50
2018,07,24,01,12,18.50
2018,07,24,01,13,18.40
2018,07,24,01,14,18.40
2018,07,24,01,15,18.40
2018,07,24,01,16,18.30
2018,07,24,01,17,18.30
2018,07,24,01,18,18.30
2018,07,24,01,19,18.30
2018,07,24,01,20,18.20
2018,07,24,01,21,18.20
2018,07,24,01,22,18.20
2018,07,24,01,23,18.20
2018,07,24,01,24,18.20
2018,07,24,01,25,18.10
2018,07,24,01,26,18.10
2018,07,24,01,27,18.10
2018,07,24,01,28,18.10
2018,07,24,01,29,18.10
2018,07,24,01,30,18.00
2018,07,24,01,31,18.00
2018,07,24,01,32,18.00
2018,07,24,01,33,17.90
2018,07,24,01,34,17.90
2018,07,24,01,35,17.90
2018,07,24,01,36,17.90
2018,07,24,01,37,17.90
2018,07,24,01,38,17.80
2018,07,24,01,39,17.80
2018,07,24,01,40,17.80
2018,07,24,01,41,17.80
2018,07,24,01,42,17.80
2018,07,24,01,43,17.80
2018,07,24,01,44,17.80
2018,07,24,01,45,17.70
2018,07,24,01,46,17.70
2018,07,24,01,47,17.70
2018,07,24,01,48,17.70
2018,07,24,01,49,17.70
2018,07,24,01,50,17.70
2018,07,24,01,51,17.60
2018,07,24,01,52,17.60
2018,07,24,01,53,17.60
2018,07,24,01,54,17.60
2018,07,24,01,55,17.60
2018,07,24,01,56,17.50
2018,07,24,01,57,17.50
2018,07,24,01,58,17.50
2018,07,24,01,59,17.40
2018,07,24,02,00,17.40
2018,07,24,02,01,17.40
2018,07,24,02,02,17.30
2018,07,24,02,03,17.30
2018,07,24,02,04,17.30
2018,07,24,02,05,17.30
2018,07,24,02,06,17.20
2018,07,24,02,07,17.20
2018,07,24,02,08,17.20
2018,07,24,02,09,17.20
2018,07,24,02,10,17.10
2018,07,24,02,11,17.10
2018,07,24,02,12,17.10
2018,07,24,02,13,17.10
2018,07,24,02,14,17.10
2018,07,24,02,15,17.10
2018,07,24,02,16,17.10
2018,07,24,02,17,17.00
2018,07,24,02,18,17.00
2018,07,24,02,19,17.00
2018,07,24,02,20,17.00
2018,07,24,02,21,17.00
2018,07,24,02,22,16.90
2018,07,24,02,23,16.90
2018,07,24,02,24,16.90
2018,07,24,02,25,16.90
2018,07,24,02,26,16.90
2018,07,24,02,27,16.90
2018,07,24,02,28,16.90
2018,07,24,02,29,16.90
2018,07,24,02,30,16.90
2018,07,24,02,31,16.80
2018,07,24,02,32,16.80
2018,07,24,02,33,16.80
2018,07,24,02,34,16.80
2018,07,24,02,35,16.80
2018,07,24,02,36,16.80
2018,07,24,02,37,16.80
2018,07,24,02,38,16.80
2018,07,24,02,39,16.70
2018,07,24,02,40,16.70
2018,07,24,02,41,16.70
2018,07,24,02,42,16.70
2018,07,24,02,43,16.60
2018,07,24,02,44,16.60
2018,07,24,02,45,16.60
2018,07,24,02,46,16.60
2018,07,24,02,47,16.60
2018,07,24,02,48,16.50
2018,07,24,02,49,16.50
2018,07,24,02,50,16.50
2018,07,24,02,51,16.50
2018,07,24,02,52,16.50
2018,07,24,02,53,16.40
2018,07,24,02,54,16.40
2018,07,24,02,55,16.40
2018,07,24,02,56,16.40
2018,07,24,02,57,16.40
2018,07,24,02,58,16.40
2018,07,24,02,59,16.40
2018,07,24,03,00,16.40
2018,07,24,03,01,16.40
2018,07,24,03,02,16.40
2018,07,24,03,03,16.40
2018,07,24,03,04,16.30
2018,07,24,03,05,16.30
2018,07,24,03,06,16.30
2018,07,24,03,07,16.30
2018,07,24,03,08,16.30
2018,07,24,03,09,16.30
2018,07,24,03,10,16.30
2018,07,24,03,11,16.30
2018,07,24,03,12,16.30
2018,07,24,03,13,16.30
2018,07,24,03,14,16.30
2018,07,24,03,15,16.30
2018,07,24,03,16,16.30
2018,07,24,03,17,16.20
2018,07,24,03,18,16.20
2018,07,24,03,19,16.20
2018,07,24,03,20,16.20
2018,07,24,03,21,16.20
2018,07,24,03,22,16.20
2018,07,24,03,23,16.20
2018,07,24,03,24,16.20
2018,07,24,03,25,16.10
2018,07,24,03,26,16.10
2018,07,24,03,27,16.10
2018,07,24,03,28,16.10
2018,07,24,03,29,16.10
2018,07,24,03,30,16.10
2018,07,24,03,31,16.10
2018,07,24,03,32,16.10
2018,07,24,03,33,16.10
2018,07,24,03,34,16.00
2018,07,24,03,35,16.00
2018,07,24,03,36,16.00
2018,07,24,03,37,16.00
2018,07,24,03,38,16.00
2018,07,24,03,39,16.00
2018,07,24,03,40,16.00
2018,07,24,03,41,16.00
2018,07,24,03,42,16.00
2018,07,24,03,43,15.90
2018,07,24,03,44,15.90
2018,07,24,03,45,15.90
2018,07,24,03,46,15.90
2018,07,24,03,47,15.90
2018,07,24,03,48,15.90
2018,07,24,03,49,15.80
2018,07,24,03,50,15.80
2018,07,24,03,51,15.80
2018,07,24,03,52,15.80
2018,07,24,03,53,15.80
2018,07,24,03,54,15.80
2018,07,24,03,55,15.70
2018,07,24,03,56,15.70
2018,07,24,03,57,15.70
2018,07,24,03,58,15.70
2018,07,24,03,59,15.70
2018,07,24,04,00,15.70
2018,07,24,04,01,15.70
2018,07,24,04,02,15.70
2018,07,24,04,03,15.70
2018,07,24,04,04,15.70
2018,07,24,04,05,15.70
2018,07,24,04,06,15.70
2018,07,24,04,07,15.70
2018,07,24,04,08,15.70
2018,07,24,04,09,15.70
2018,07,24,04,10,15.70
2018,07,24,04,11,15.70
2018,07,24,04,12,15.70
2018,07,24,04,13,15.70
2018,07,24,04,14,15.70
2018,07,24,04,15,15.70
2018,07,24,04,16,15.70
2018,07,24,04,17,15.70
2018,07,24,04,18,15.70
2018,07,24,04,19,15.70
2018,07,24,04,20,15.70
2018,07,24,04,21,15.70
2018,07,24,04,22,15.70
2018,07,24,04,23,15.70
2018,07,24,04,24,15.60
2018,07,24,04,25,15.60
2018,07,24,04,26,15.60
2018,07,24,04,27,15.60
2018,07,24,04,28,15.50
2018,07,24,04,29,15.50
2018,07,24,04,30,15.50
2018,07,24,04,31,15.40
2018,07,24,04,32,15.40
2018,07,24,04,33,15.40
2018,07,24,04,34,15.40
2018,07,24,04,35,15.40
2018,07,24,04,36,15.30
2018,07,24,04,37,15.30
2018,07,24,04,38,15.30
2018,07,24,04,39,15.30
2018,07,24,04,40,15.30
2018,07,24,04,41,15.30
2018,07,24,04,42,15.20
2018,07,24,04,43,15.20
2018,07,24,04,44,15.20
2018,07,24,04,45,15.20
2018,07,24,04,46,15.20
2018,07,24,04,47,15.20
2018,07,24,04,48,15.20
2018,07,24,04,49,15.20
2018,07,24,04,50,15.20
2018,07,24,04,51,15.20
2018,07,24,04,52,15.20
2018,07,24,04,53,15.20
2018,07,24,04,54,15.10
2018,07,24,04,55,15.10
2018,07,24,04,56,15.10
2018,07,24,04,57,15.10
2018,07,24,04,58,15.10
2018,07,24,04,59,15.10
2018,07,24,05,00,15.10
2018,07,24,05,01,15.10
2018,07,24,05,02,15.00
2018,07,24,05,03,15.00
2018,07,24,05,04,15.00
2018,07,24,05,05,15.00
2018,07,24,05,06,15.00
2018,07,24,05,07,15.00
2018,07,24,05,08,15.00
2018,07,24,05,09,15.00
2018,07,24,05,10,15.00
2018,07,24,05,11,15.00
2018,07,24,05,12,15.00
2018,07,24,05,13,15.00
2018,07,24,05,14,15.00
2018,07,24,05,15,15.00
2018,07,24,05,16,15.00
2018,07,24,05,17,15.00
2018,07,24,05,18,15.00
2018,07,24,05,19,15.00
2018,07,24,05,20,15.00
2018,07,24,05,21,15.00
2018,07,24,05,22,15.00
2018,07,24,05,23,15.00
2018,07,24,05,24,15.00
2018,07,24,05,25,15.00
2018,07,24,05,26,15.00
2018,07,24,05,27,15.00
2018,07,24,05,28,15.00
2018,07,24,05,29,15.00
2018,07,24,05,30,15.00
2018,07,24,05,31,15.00
2018,07,24,05,32,15.00
2018,07,24,05,33,14.90
2018,07,24,05,34,14.90
2018,07,24,05,35,14.90
2018,07,24,05,36,14.90
2018,07,24,05,37,14.80
2018,07,24,05,38,14.80
2018,07,24,05,39,14.80
2018,07,24,05,40,14.80
2018,07,24,05,41,14.80
2018,07,24,05,42,14.80
2018,07,24,05,43,14.80
2018,07,24,05,44,14.80
2018,07,24,05,45,14.80
2018,07,24,05,46,14.80
2018,07,24,05,47,14.80
2018,07,24,05,48,14.80
2018,07,24,05,49,14.80
2018,07,24,05,50,14.80
2018,07,24,05,51,14.70
2018,07,24,05,52,14.70
2018,07,24,05,53,14.70
2018,07,24,05,54,14.70
2018,07,24,05,55,14.70
2018,07,24,05,56,14.70
2018,07,24,05,57,14.70
2018,07,24,05,58,14.70
2018,07,24,05,59,14.70
2018,07,24,06,00,14.70
2018,07,24,06,01,14.70
2018,07,24,06,02,14.70
2018,07,24,06,03,14.70
2018,07,24,06,04,14.70
2018,07,24,06,05,14.70
2018,07,24,06,06,14.70
2018,07,24,06,07,14.70
2018,07,24,06,08,14.70
2018,07,24,06,09,14.70
2018,07,24,06,10,14.70
2018,07,24,06,11,14.70
2018,07,24,06,12,14.70
2018,07,24,06,13,14.70
2018,07,24,06,14,14.70
2018,07,24,06,15,14.70
2018,07,24,06,16,14.60
2018,07,24,06,17,14.60
2018,07,24,06,18,14.60
2018,07,24,06,19,14.60
2018,07,24,06,20,14.60
2018,07,24,06,21,14.60
2018,07,24,06,22,14.60
2018,07,24,06,23,14.60
2018,07,24,06,24,14.60
2018,07,24,06,25,14.60
2018,07,24,06,26,14.60
2018,07,24,06,27,14.60
2018,07,24,06,28,14.60
2018,07,24,06,29,14.70
2018,07,24,06,30,14.70
2018,07,24,06,31,14.70
2018,07,24,06,32,14.70
2018,07,24,06,33,14.70
2018,07,24,06,34,14.70
2018,07,24,06,35,14.70
2018,07,24,06,36,14.70
2018,07,24,06,37,14.70
2018,07,24,06,38,14.70
2018,07,24,06,39,14.70
2018,07,24,06,40,14.70
2018,07,24,06,41,14.70
2018,07,24,06,42,14.80
2018,07,24,06,43,14.80
2018,07,24,06,44,14.80
2018,07,24,06,45,14.80
2018,07,24,06,46,14.80
2018,07,24,06,47,14.80
2018,07,24,06,48,14.80
2018,07,24,06,49,14.90
2018,07,24,06,50,14.90
2018,07,24,06,51,14.90
2018,07,24,06,52,15.00
2018,07,24,06,53,15.00
2018,07,24,06,54,15.00
2018,07,24,06,55,15.00
2018,07,24,06,56,15.00
2018,07,24,06,57,15.00
2018,07,24,06,58,15.00
2018,07,24,06,59,15.10
2018,07,24,07,00,15.20
2018,07,24,07,01,15.20
2018,07,24,07,02,15.30
2018,07,24,07,03,15.30
2018,07,24,07,04,15.30
2018,07,24,07,05,15.40
2018,07,24,07,06,15.40
2018,07,24,07,07,15.40
2018,07,24,07,08,15.50
2018,07,24,07,09,15.50
2018,07,24,07,10,15.60
2018,07,24,07,11,15.60
2018,07,24,07,12,15.60
2018,07,24,07,13,15.70
2018,07,24,07,14,15.70
2018,07,24,07,15,15.80
2018,07,24,07,16,15.80
2018,07,24,07,17,15.80
2018,07,24,07,18,15.90
2018,07,24,07,19,15.90
2018,07,24,07,20,16.00
2018,07,24,07,21,16.10
2018,07,24,07,22,16.20
2018,07,24,07,23,16.20
2018,07,24,07,24,16.30
2018,07,24,07,25,16.40
2018,07,24,07,26,16.50
2018,07,24,07,27,16.60
2018,07,24,07,28,16.60
2018,07,24,07,29,16.70
2018,07,24,07,30,16.80
2018,07,24,07,31,17.00
2018,07,24,07,32,17.10
2018,07,24,07,33,17.20
2018,07,24,07,34,17.40
2018,07,24,07,35,17.60
2018,07,24,07,36,17.80
2018,07,24,07,37,17.90
2018,07,24,07,38,18.10
2018,07,24,07,39,18.20
2018,07,24,07,40,18.40
2018,07,24,07,41,18.60
2018,07,24,07,42,18.80
2018,07,24,07,43,18.90
2018,07,24,07,44,19.10
2018,07,24,07,45,19.20
2018,07,24,07,46,19.40
2018,07,24,07,47,19.60
2018,07,24,07,48,19.70
2018,07,24,07,49,19.80
2018,07,24,07,50,20.00
2018,07,24,07,51,20.10
2018,07,24,07,52,20.20
2018,07,24,07,53,20.30
2018,07,24,07,54,20.40
2018,07,24,07,55,20.50
2018,07,24,07,56,20.60
2018,07,24,07,57,20.70
2018,07,24,07,58,20.80
2018,07,24,07,59,20.80
2018,07,24,08,00,20.80
2018,07,24,08,01,20.90
2018,07,24,08,02,20.90
2018,07,24,08,03,20.90
2018,07,24,08,04,21.00
2018,07,24,08,05,21.00
2018,07,24,08,06,21.00
2018,07,24,08,07,21.00
2018,07,24,08,08,21.10
2018,07,24,08,09,21.10
2018,07,24,08,10,21.10
2018,07,24,08,11,21.20
2018,07,24,08,12,21.20
2018,07,24,08,13,21.30
2018,07,24,08,14,21.30
2018,07,24,08,15,21.40
2018,07,24,08,16,21.50
2018,07,24,08,17,21.50
2018,07,24,08,18,21.60
2018,07,24,08,19,21.70
2018,07,24,08,20,21.80
2018,07,24,08,21,21.90
2018,07,24,08,22,22.00
2018,07,24,08,23,22.10
2018,07,24,08,24,22.20
2018,07,24,08,25,22.30
2018,07,24,08,26,22.30
2018,07,24,08,27,22.40
2018,07,24,08,28,22.50
2018,07,24,08,29,22.50
2018,07,24,08,30,22.60
2018,07,24,08,31,22.60
2018,07,24,08,32,22.60
2018,07,24,08,33,22.70
2018,07,24,08,34,22.70
2018,07,24,08,35,22.70
2018,07,24,08,36,22.70
2018,07,24,08,37,22.80
2018,07,24,08,38,22.80
2018,07,24,08,39,22.90
2018,07,24,08,40,23.00
2018,07,24,08,41,23.10
2018,07,24,08,42,23.10
2018,07,24,08,43,23.10
2018,07,24,08,44,23.20
2018,07,24,08,45,23.20
2018,07,24,08,46,23.30
2018,07,24,08,47,23.40
2018,07,24,08,48,23.40
2018,07,24,08,49,23.40
2018,07,24,08,50,23.40
2018,07,24,08,51,23.40
2018,07,24,08,52,23.40
2018,07,24,08,53,23.50
2018,07,24,08,54,23.60
2018,07,24,08,55,23.70
2018,07,24,08,56,23.80
2018,07,24,08,57,23.90
2018,07,24,08,58,24.00
2018,07,24,08,59,24.20
2018,07,24,09,00,24.30
2018,07,24,09,01,24.30
2018,07,24,09,02,24.40
2018,07,24,09,03,24.40
2018,07,24,09,04,24.40
2018,07,24,09,05,24.40
2018,07,24,09,06,24.40
2018,07,24,09,07,24.50
2018,07,24,09,08,24.50
2018,07,24,09,09,24.60
2018,07,24,09,10,24.70
2018,07,24,09,11,24.70
2018,07,24,09,12,24.70
2018,07,24,09,13,24.60
2018,07,24,09,14,24.60
2018,07,24,09,15,24.60
2018,07,24,09,16,24.60
2018,07,24,09,17,24.60
2018,07,24,09,18,24.70
2018,07,24,09,19,24.70
2018,07,24,09,20,24.80
2018,07,24,09,21,24.80
2018,07,24,09,22,24.90
2018,07,24,09,23,25.00
2018,07,24,09,24,25.10
2018,07,24,09,25,25.20
2018,07,24,09,26,25.30
2018,07,24,09,27,25.40
2018,07,24,09,28,25.60
2018,07,24,09,29,25.60
2018,07,24,09,30,25.60
2018,07,24,09,31,25.60
2018,07,24,09,32,25.50
2018,07,24,09,33,25.40
2018,07,24,09,34,25.40
2018,07,24,09,35,25.30
2018,07,24,09,36,25.30
2018,07,24,09,37,25.20
2018,07,24,09,38,25.20
2018,07,24,09,39,25.20
2018,07,24,09,40,25.20
2018,07,24,09,41,25.20
2018,07,24,09,42,25.10
2018,07,24,09,43,25.10
2018,07,24,09,44,25.10
2018,07,24,09,45,25.20
2018,07,24,09,46,25.20
2018,07,24,09,47,25.30
2018,07,24,09,48,25.40
2018,07,24,09,49,25.50
2018,07,24,09,50,25.60
2018,07,24,09,51,25.70
2018,07,24,09,52,25.70
2018,07,24,09,53,25.70
2018,07,24,09,54,25.70
2018,07,24,09,55,25.70
2018,07,24,09,56,25.60
2018,07,24,09,57,25.60
2018,07,24,09,58,25.60
2018,07,24,09,59,25.50
2018,07,24,10,00,25.40
2018,07,24,10,01,25.40
2018,07,24,10,02,25.40
2018,07,24,10,03,25.40
2018,07,24,10,04,25.40
2018,07,24,10,05,25.50
2018,07,24,10,06,25.60
2018,07,24,10,07,25.60
2018,07,24,10,08,25.70
2018,07,24,10,09,25.70
2018,07,24,10,10,25.70
2018,07,24,10,11,25.70
2018,07,24,10,12,25.80
2018,07,24,10,13,25.80
2018,07,24,10,14,25.80
2018,07,24,10,15,25.80
2018,07,24,10,16,25.70
2018,07,24,10,17,25.50
2018,07,24,10,18,25.40
2018,07,24,10,19,25.30
2018,07,24,10,20,25.10
2018,07,24,10,21,25.00
2018,07,24,10,22,24.90
2018,07,24,10,23,24.80
2018,07,24,10,24,24.80
2018,07,24,10,25,24.80
2018,07,24,10,26,24.90
2018,07,24,10,27,24.90
2018,07,24,10,28,24.90
2018,07,24,10,29,25.00
2018,07,24,10,30,25.10
2018,07,24,10,31,25.20
2018,07,24,10,32,25.30
2018,07,24,10,33,25.30
2018,07,24,10,34,25.30
2018,07,24,10,35,25.30
2018,07,24,10,36,25.30
2018,07,24,10,37,25.40
2018,07,24,10,38,25.40
2018,07,24,10,39,25.50
2018,07,24,10,40,25.60
2018,07,24,10,41,25.60
2018,07,24,10,42,25.60
2018,07,24,10,43,25.60
2018,07,24,10,44,25.60
2018,07,24,10,45,25.70
2018,07,24,10,46,25.70
2018,07,24,10,47,25.80
2018,07,24,10,48,25.90
2018,07,24,10,49,25.90
2018,07,24,10,50,26.00
2018,07,24,10,51,26.10
2018,07,24,10,52,26.20
2018,07,24,10,53,26.20
2018,07,24,10,54,26.20
2018,07,24,10,55,26.20
2018,07,24,10,56,26.20
2018,07,24,10,57,26.30
2018,07,24,10,58,26.40
2018,07,24,10,59,26.30
2018,07,24,11,00,26.30
2018,07,24,11,01,26.20
2018,07,24,11,02,26.10
2018,07,24,11,03,26.00
2018,07,24,11,04,25.90
2018,07,24,11,05,25.90
2018,07,24,11,06,25.80
2018,07,24,11,07,25.80
2018,07,24,11,08,25.90
2018,07,24,11,09,25.90
2018,07,24,11,10,26.00
2018,07,24,11,11,26.00
2018,07,24,11,12,26.10
2018,07,24,11,13,26.20
2018,07,24,11,14,26.30
2018,07,24,11,15,26.40
2018,07,24,11,16,26.40
2018,07,24,11,17,26.40
2018,07,24,11,18,26.40
2018,07,24,11,19,26.30
2018,07,24,11,20,26.30
2018,07,24,11,21,26.10
2018,07,24,11,22,26.00
2018,07,24,11,23,25.90
2018,07,24,11,24,25.90
2018,07,24,11,25,26.00
2018,07,24,11,26,26.10
2018,07,24,11,27,26.20
2018,07,24,11,28,26.20
2018,07,24,11,29,26.20
2018,07,24,11,30,26.20
2018,07,24,11,31,26.20
2018,07,24,11,32,26.20
2018,07,24,11,33,26.30
2018,07,24,11,34,26.40
2018,07,24,11,35,26.50
2018,07,24,11,36,26.50
2018,07,24,11,37,26.40
2018,07,24,11,38,26.30
2018,07,24,11,39,26.40
2018,07,24,11,40,26.40
2018,07,24,11,41,26.40
2018,07,24,11,42,26.30
2018,07,24,11,43,26.40
2018,07,24,11,44,26.50
2018,07,24,11,45,26.50
2018,07,24,11,46,26.60
2018,07,24,11,47,26.60
2018,07,24,11,48,26.60
2018,07,24,11,49,26.50
2018,07,24,11,50,26.50
2018,07,24,11,51,26.50
2018,07,24,11,52,26.50
2018,07,24,11,53,26.50
2018,07,24,11,54,26.40
2018,07,24,11,55,26.40
2018,07,24,11,56,26.40
2018,07,24,11,57,26.30
2018,07,24,11,58,26.20
2018,07,24,11,59,26.20
2018,07,24,12,00,26.20
2018,07,24,12,01,26.20
2018,07,24,12,02,26.10
2018,07,24,12,03,26.00
2018,07,24,12,04,26.00
2018,07,24,12,05,26.00
2018,07,24,12,06,26.00
2018,07,24,12,07,26.10
2018,07,24,12,08,26.10
2018,07,24,12,09,26.20
2018,07,24,12,10,26.20
2018,07,24,12,11,26.20
2018,07,24,12,12,26.30
2018,07,24,12,13,26.30
2018,07,24,12,14,26.20
2018,07,24,12,15,26.20
2018,07,24,12,16,26.10
2018,07,24,12,17,26.00
2018,07,24,12,18,26.00
2018,07,24,12,19,26.00
2018,07,24,12,20,25.90
2018,07,24,12,21,25.90
2018,07,24,12,22,25.90
2018,07,24,12,23,26.10
2018,07,24,12,24,26.20
2018,07,24,12,25,26.40
2018,07,24,12,26,26.40
2018,07,24,12,27,26.40
2018,07,24,12,28,26.30
2018,07,24,12,29,26.20
2018,07,24,12,30,26.20
2018,07,24,12,31,26.20
2018,07,24,12,32,26.20
2018,07,24,12,33,26.20
2018,07,24,12,34,26.20
2018,07,24,12,35,26.20
2018,07,24,12,36,26.10
2018,07,24,12,37,26.10
2018,07,24,12,38,26.10
2018,07,24,12,39,26.10
2018,07,24,12,40,26.10
2018,07,24,12,41,26.10
2018,07,24,12,42,26.00
2018,07,24,12,43,26.00
2018,07,24,12,44,25.90
2018,07,24,12,45,25.90
2018,07,24,12,46,26.00
2018,07,24,12,47,26.20
2018,07,24,12,48,26.40
2018,07,24,12,49,26.70
2018,07,24,12,50,26.80
2018,07,24,12,51,26.80
2018,07,24,12,52,26.80
2018,07,24,12,53,26.70
2018,07,24,12,54,26.60
2018,07,24,12,55,26.60
2018,07,24,12,56,26.60
2018,07,24,12,57,26.70
2018,07,24,12,58,26.60
2018,07,24,12,59,26.60
2018,07,24,13,00,26.60
2018,07,24,13,01,26.60
2018,07,24,13,02,26.60
2018,07,24,13,03,26.60
2018,07,24,13,04,26.50
2018,07,24,13,05,26.60
2018,07,24,13,06,26.60
2018,07,24,13,07,26.60
2018,07,24,13,08,26.60
2018,07,24,13,09,26.70
2018,07,24,13,10,26.80
2018,07,24,13,11,26.90
2018,07,24,13,12,27.10
2018,07,24,13,13,27.20
2018,07,24,13,14,27.10
2018,07,24,13,15,27.00
2018,07,24,13,16,27.00
2018,07,24,13,17,27.10
2018,07,24,13,18,27.20
2018,07,24,13,19,27.20
2018,07,24,13,20,27.30
2018,07,24,13,21,27.40
2018,07,24,13,22,27.50
2018,07,24,13,23,27.50
2018,07,24,13,24,27.60
2018,07,24,13,25,27.70
2018,07,24,13,26,27.80
2018,07,24,13,27,27.90
2018,07,24,13,28,28.00
2018,07,24,13,29,28.10
2018,07,24,13,30,28.00
2018,07,24,13,31,27.80
2018,07,24,13,32,27.80
2018,07,24,13,33,27.80
2018,07,24,13,34,27.70
2018,07,24,13,35,27.80
2018,07,24,13,36,27.90
2018,07,24,13,37,27.90
2018,07,24,13,38,27.80
2018,07,24,13,39,27.70
2018,07,24,13,40,27.70
2018,07,24,13,41,27.70
2018,07,24,13,42,27.70
2018,07,24,13,43,27.80
2018,07,24,13,44,27.80
2018,07,24,13,45,27.70
2018,07,24,13,46,27.70
2018,07,24,13,47,27.60
2018,07,24,13,48,27.50
2018,07,24,13,49,27.40
2018,07,24,13,50,27.50
2018,07,24,13,51,27.50
2018,07,24,13,52,27.50
2018,07,24,13,53,27.60
2018,07,24,13,54,27.70
2018,07,24,13,55,27.90
2018,07,24,13,56,28.10
2018,07,24,13,57,28.20
2018,07,24,13,58,28.20
2018,07,24,13,59,28.20
2018,07,24,14,00,28.30
2018,07,24,14,01,28.30
2018,07,24,14,02,28.40
2018,07,24,14,03,28.30
2018,07,24,14,04,28.40
2018,07,24,14,05,28.40
2018,07,24,14,06,28.40
2018,07,24,14,07,28.40
2018,07,24,14,08,28.50
2018,07,24,14,09,28.60
2018,07,24,14,10,28.60
2018,07,24,14,11,28.60
2018,07,24,14,12,28.40
2018,07,24,14,13,28.30
2018,07,24,14,14,28.20
2018,07,24,14,15,28.20
2018,07,24,14,16,28.30
2018,07,24,14,17,28.30
2018,07,24,14,18,28.40
2018,07,24,14,19,28.50
2018,07,24,14,20,28.50
2018,07,24,14,21,28.40
2018,07,24,14,22,28.40
2018,07,24,14,23,28.50
2018,07,24,14,24,28.60
2018,07,24,14,25,28.70
2018,07,24,14,26,28.70
2018,07,24,14,27,28.60
2018,07,24,14,28,28.50
2018,07,24,14,29,28.50
2018,07,24,14,30,28.50
2018,07,24,14,31,28.50
2018,07,24,14,32,28.60
2018,07,24,14,33,28.60
2018,07,24,14,34,28.60
2018,07,24,14,35,28.60
2018,07,24,14,36,28.60
2018,07,24,14,37,28.60
2018,07,24,14,38,28.80
2018,07,24,14,39,28.90
2018,07,24,14,40,29.00
2018,07,24,14,41,29.10
2018,07,24,14,42,29.20
2018,07,24,14,43,29.20
2018,07,24,14,44,29.10
2018,07,24,14,45,29.10
2018,07,24,14,46,29.00
2018,07,24,14,47,28.90
2018,07,24,14,48,28.80
2018,07,24,14,49,28.80
2018,07,24,14,50,28.90
2018,07,24,14,51,28.90
2018,07,24,14,52,28.90
2018,07,24,14,53,28.90
2018,07,24,14,54,28.90
2018,07,24,14,55,28.90
2018,07,24,14,56,29.00
2018,07,24,14,57,29.00
2018,07,24,14,58,29.00
2018,07,24,14,59,29.00
2018,07,24,15,00,29.10
2018,07,24,15,01,29.10
2018,07,24,15,02,29.10
2018,07,24,15,03,29.10
2018,07,24,15,04,29.20
2018,07,24,15,05,29.30
2018,07,24,15,06,29.40
2018,07,24,15,07,29.40
2018,07,24,15,08,29.40
2018,07,24,15,09,29.40
2018,07,24,15,10,29.50
2018,07,24,15,11,29.60
2018,07,24,15,12,29.60
2018,07,24,15,13,29.70
2018,07,24,15,14,29.70
2018,07,24,15,15,29.80
2018,07,24,15,16,29.90
2018,07,24,15,17,30.00
2018,07,24,15,18,30.10
2018,07,24,15,19,30.20
2018,07,24,15,20,30.20
2018,07,24,15,21,30.30
2018,07,24,15,22,30.30
2018,07,24,15,23,30.40
2018,07,24,15,24,30.50
2018,07,24,15,25,30.60
2018,07,24,15,26,30.70
2018,07,24,15,27,30.70
2018,07,24,15,28,30.80
2018,07,24,15,29,30.80
2018,07,24,15,30,30.90
2018,07,24,15,31,30.80
2018,07,24,15,32,30.50
2018,07,24,15,33,30.40
2018,07,24,15,34,30.40
2018,07,24,15,35,30.50
2018,07,24,15,36,30.50
2018,07,24,15,37,30.50
2018,07,24,15,38,30.50
2018,07,24,15,39,30.60
2018,07,24,15,40,30.60
2018,07,24,15,41,30.70
2018,07,24,15,42,30.80
2018,07,24,15,43,30.90
2018,07,24,15,44,31.00
2018,07,24,15,45,31.00
2018,07,24,15,46,31.00
2018,07,24,15,47,31.00
2018,07,24,15,48,31.00
2018,07,24,15,49,30.80
2018,07,24,15,50,30.60
2018,07,24,15,51,30.60
2018,07,24,15,52,30.50
2018,07,24,15,53,30.40
2018,07,24,15,54,30.20
2018,07,24,15,55,30.20
2018,07,24,15,56,30.20
2018,07,24,15,57,30.20
2018,07,24,15,58,30.30
2018,07,24,15,59,30.30
2018,07,24,16,00,30.30
2018,07,24,16,01,30.30
2018,07,24,16,02,30.30
2018,07,24,16,03,30.40
2018,07,24,16,04,30.40
2018,07,24,16,05,30.30
2018,07,24,16,06,30.30
2018,07,24,16,07,30.40
2018,07,24,16,08,30.50
2018,07,24,16,09,30.50
2018,07,24,16,10,30.50
2018,07,24,16,11,30.60
2018,07,24,16,12,30.50
2018,07,24,16,13,30.50
2018,07,24,16,14,30.40
2018,07,24,16,15,30.30
2018,07,24,16,16,30.30
2018,07,24,16,17,30.30
2018,07,24,16,18,30.20
2018,07,24,16,19,30.20
2018,07,24,16,20,30.10
2018,07,24,16,21,30.00
2018,07,24,16,22,29.90
2018,07,24,16,23,30.00
2018,07,24,16,24,30.10
2018,07,24,16,25,30.10
2018,07,24,16,26,30.10
2018,07,24,16,27,30.20
2018,07,24,16,28,30.10
2018,07,24,16,29,30.10
2018,07,24,16,30,30.00
2018,07,24,16,31,29.90
2018,07,24,16,32,29.90
2018,07,24,16,33,30.00
2018,07,24,16,34,30.10
2018,07,24,16,35,30.10
2018,07,24,16,36,30.10
2018,07,24,16,37,30.10
2018,07,24,16,38,30.00
2018,07,24,16,39,30.00
2018,07,24,16,40,30.10
2018,07,24,16,41,30.10
2018,07,24,16,42,30.20
2018,07,24,16,43,30.40
2018,07,24,16,44,30.40
2018,07,24,16,45,30.50
2018,07,24,16,46,30.40
2018,07,24,16,47,30.40
2018,07,24,16,48,30.40
2018,07,24,16,49,30.40
2018,07,24,16,50,30.30
2018,07,24,16,51,30.20
2018,07,24,16,52,30.20
2018,07,24,16,53,30.20
2018,07,24,16,54,30.20
2018,07,24,16,55,30.30
2018,07,24,16,56,30.30
2018,07,24,16,57,30.30
2018,07,24,16,58,30.20
2018,07,24,16,59,30.20
2018,07,24,17,00,30.20
2018,07,24,17,01,30.30
2018,07,24,17,02,30.40
2018,07,24,17,03,30.60
2018,07,24,17,04,30.60
2018,07,24,17,05,30.70
2018,07,24,17,06,30.60
2018,07,24,17,07,30.70
2018,07,24,17,08,30.70
2018,07,24,17,09,30.70
2018,07,24,17,10,30.60
2018,07,24,17,11,30.50
2018,07,24,17,12,30.40
2018,07,24,17,13,30.40
2018,07,24,17,14,30.40
2018,07,24,17,15,30.40
2018,07,24,17,16,30.50
2018,07,24,17,17,30.60
2018,07,24,17,18,30.60
2018,07,24,17,19,30.70